﻿測定場所 (Monitoring sites),日付 (Measurement date),時間 (Measurement time),線量率 最大値 (max) μGy/h,線量率 最小値 (min) μGy/h,線量率 平均値 (average) μGy/h,
江戸川 (Edogawa),2017-04-30,23:01～24:00,0.0577,0.0510,0.0541,
江戸川 (Edogawa),2017-04-30,22:01～23:00,0.0571,0.0506,0.0540,
江戸川 (Edogawa),2017-04-30,21:01～22:00,0.0565,0.0511,0.0542,
江戸川 (Edogawa),2017-04-30,20:01～21:00,0.0576,0.0505,0.0540,
江戸川 (Edogawa),2017-04-30,19:01～20:00,0.0570,0.0511,0.0539,
江戸川 (Edogawa),2017-04-30,18:01～19:00,0.0574,0.0503,0.0540,
江戸川 (Edogawa),2017-04-30,17:01～18:00,0.0573,0.0502,0.0541,
江戸川 (Edogawa),2017-04-30,16:01～17:00,0.0570,0.0505,0.0543,
江戸川 (Edogawa),2017-04-30,15:01～16:00,0.0577,0.0500,0.0541,
江戸川 (Edogawa),2017-04-30,14:01～15:00,0.0578,0.0503,0.0540,
江戸川 (Edogawa),2017-04-30,13:01～14:00,0.0584,0.0504,0.0539,
江戸川 (Edogawa),2017-04-30,12:01～13:00,0.0570,0.0508,0.0540,
江戸川 (Edogawa),2017-04-30,11:01～12:00,0.0572,0.0496,0.0539,
江戸川 (Edogawa),2017-04-30,10:01～11:00,0.0580,0.0501,0.0541,
江戸川 (Edogawa),2017-04-30,09:01～10:00,0.0586,0.0513,0.0544,
江戸川 (Edogawa),2017-04-30,08:01～09:00,0.0574,0.0511,0.0540,
江戸川 (Edogawa),2017-04-30,07:01～08:00,0.0574,0.0510,0.0540,
江戸川 (Edogawa),2017-04-30,06:01～07:00,0.0567,0.0498,0.0540,
江戸川 (Edogawa),2017-04-30,05:01～06:00,0.0589,0.0502,0.0539,
江戸川 (Edogawa),2017-04-30,04:01～05:00,0.0571,0.0501,0.0535,
江戸川 (Edogawa),2017-04-30,03:01～04:00,0.0569,0.0506,0.0536,
江戸川 (Edogawa),2017-04-30,02:01～03:00,0.0564,0.0514,0.0535,
江戸川 (Edogawa),2017-04-30,01:01～02:00,0.0573,0.0498,0.0535,
江戸川 (Edogawa),2017-04-30,00:01～01:00,0.0571,0.0499,0.0533,
江戸川 (Edogawa),2017-04-29,23:01～24:00,0.0577,0.0498,0.0536,
江戸川 (Edogawa),2017-04-29,22:01～23:00,0.0567,0.0497,0.0537,
江戸川 (Edogawa),2017-04-29,21:01～22:00,0.0601,0.0525,0.0554,
江戸川 (Edogawa),2017-04-29,20:01～21:00,0.0625,0.0529,0.0569,
江戸川 (Edogawa),2017-04-29,19:01～20:00,0.0580,0.0505,0.0548,
江戸川 (Edogawa),2017-04-29,18:01～19:00,0.0587,0.0514,0.0545,
江戸川 (Edogawa),2017-04-29,17:01～18:00,0.0563,0.0502,0.0537,
江戸川 (Edogawa),2017-04-29,16:01～17:00,0.0574,0.0511,0.0543,
江戸川 (Edogawa),2017-04-29,15:01～16:00,0.0562,0.0499,0.0536,
江戸川 (Edogawa),2017-04-29,14:01～15:00,0.0577,0.0502,0.0538,
江戸川 (Edogawa),2017-04-29,13:01～14:00,0.0568,0.0496,0.0538,
江戸川 (Edogawa),2017-04-29,12:01～13:00,0.0576,0.0505,0.0533,
江戸川 (Edogawa),2017-04-29,11:01～12:00,0.0568,0.0505,0.0534,
江戸川 (Edogawa),2017-04-29,10:01～11:00,0.0589,0.0500,0.0536,
江戸川 (Edogawa),2017-04-29,09:01～10:00,0.0574,0.0501,0.0542,
江戸川 (Edogawa),2017-04-29,08:01～09:00,0.0585,0.0503,0.0534,
江戸川 (Edogawa),2017-04-29,07:01～08:00,0.0573,0.0491,0.0531,
江戸川 (Edogawa),2017-04-29,06:01～07:00,0.0568,0.0497,0.0533,
江戸川 (Edogawa),2017-04-29,05:01～06:00,0.0564,0.0499,0.0531,
江戸川 (Edogawa),2017-04-29,04:01～05:00,0.0565,0.0511,0.0535,
江戸川 (Edogawa),2017-04-29,03:01～04:00,0.0581,0.0506,0.0538,
江戸川 (Edogawa),2017-04-29,02:01～03:00,0.0562,0.0499,0.0531,
江戸川 (Edogawa),2017-04-29,01:01～02:00,0.0562,0.0501,0.0526,
江戸川 (Edogawa),2017-04-29,00:01～01:00,0.0557,0.0496,0.0528,
江戸川 (Edogawa),2017-04-28,23:01～24:00,0.0558,0.0489,0.0525,
江戸川 (Edogawa),2017-04-28,22:01～23:00,0.0557,0.0496,0.0527,
江戸川 (Edogawa),2017-04-28,21:01～22:00,0.0566,0.0495,0.0530,
江戸川 (Edogawa),2017-04-28,20:01～21:00,0.0570,0.0499,0.0533,
江戸川 (Edogawa),2017-04-28,19:01～20:00,0.0567,0.0503,0.0533,
江戸川 (Edogawa),2017-04-28,18:01～19:00,0.0554,0.0500,0.0531,
江戸川 (Edogawa),2017-04-28,17:01～18:00,0.0563,0.0503,0.0535,
江戸川 (Edogawa),2017-04-28,16:01～17:00,0.0569,0.0495,0.0532,
江戸川 (Edogawa),2017-04-28,15:01～16:00,0.0562,0.0499,0.0532,
江戸川 (Edogawa),2017-04-28,14:01～15:00,0.0554,0.0508,0.0532,
江戸川 (Edogawa),2017-04-28,13:01～14:00,0.0572,0.0506,0.0531,
江戸川 (Edogawa),2017-04-28,12:01～13:00,0.0566,0.0497,0.0535,
江戸川 (Edogawa),2017-04-28,11:01～12:00,0.0567,0.0497,0.0533,
江戸川 (Edogawa),2017-04-28,10:01～11:00,0.0569,0.0487,0.0533,
江戸川 (Edogawa),2017-04-28,09:01～10:00,0.0585,0.0505,0.0538,
江戸川 (Edogawa),2017-04-28,08:01～09:00,0.0565,0.0508,0.0536,
江戸川 (Edogawa),2017-04-28,07:01～08:00,0.0569,0.0496,0.0534,
江戸川 (Edogawa),2017-04-28,06:01～07:00,0.0560,0.0498,0.0530,
江戸川 (Edogawa),2017-04-28,05:01～06:00,0.0566,0.0496,0.0529,
江戸川 (Edogawa),2017-04-28,04:01～05:00,0.0559,0.0494,0.0523,
江戸川 (Edogawa),2017-04-28,03:01～04:00,0.0549,0.0499,0.0525,
江戸川 (Edogawa),2017-04-28,02:01～03:00,0.0546,0.0487,0.0519,
江戸川 (Edogawa),2017-04-28,01:01～02:00,0.0547,0.0482,0.0518,
江戸川 (Edogawa),2017-04-28,00:01～01:00,0.0552,0.0492,0.0523,
江戸川 (Edogawa),2017-04-27,23:01～24:00,0.0555,0.0497,0.0524,
江戸川 (Edogawa),2017-04-27,22:01～23:00,0.0555,0.0495,0.0525,
江戸川 (Edogawa),2017-04-27,21:01～22:00,0.0577,0.0492,0.0524,
江戸川 (Edogawa),2017-04-27,20:01～21:00,0.0555,0.0476,0.0522,
江戸川 (Edogawa),2017-04-27,19:01～20:00,0.0554,0.0496,0.0525,
江戸川 (Edogawa),2017-04-27,18:01～19:00,0.0559,0.0492,0.0524,
江戸川 (Edogawa),2017-04-27,17:01～18:00,0.0570,0.0494,0.0531,
江戸川 (Edogawa),2017-04-27,16:01～17:00,0.0563,0.0495,0.0528,
江戸川 (Edogawa),2017-04-27,15:01～16:00,0.0554,0.0496,0.0529,
江戸川 (Edogawa),2017-04-27,14:01～15:00,0.0562,0.0491,0.0522,
江戸川 (Edogawa),2017-04-27,13:01～14:00,0.0560,0.0494,0.0525,
江戸川 (Edogawa),2017-04-27,12:01～13:00,0.0556,0.0485,0.0523,
江戸川 (Edogawa),2017-04-27,11:01～12:00,0.0548,0.0485,0.0517,
江戸川 (Edogawa),2017-04-27,10:01～11:00,0.0547,0.0478,0.0506,
江戸川 (Edogawa),2017-04-27,09:01～10:00,0.0548,0.0487,0.0519,
江戸川 (Edogawa),2017-04-27,08:01～09:00,0.0581,0.0507,0.0543,
江戸川 (Edogawa),2017-04-27,07:01～08:00,0.0578,0.0518,0.0546,
江戸川 (Edogawa),2017-04-27,06:01～07:00,0.0589,0.0516,0.0554,
江戸川 (Edogawa),2017-04-27,05:01～06:00,0.0608,0.0528,0.0565,
江戸川 (Edogawa),2017-04-27,04:01～05:00,0.0585,0.0528,0.0561,
江戸川 (Edogawa),2017-04-27,03:01～04:00,0.0597,0.0515,0.0555,
江戸川 (Edogawa),2017-04-27,02:01～03:00,0.0592,0.0511,0.0548,
江戸川 (Edogawa),2017-04-27,01:01～02:00,0.0562,0.0499,0.0530,
江戸川 (Edogawa),2017-04-27,00:01～01:00,0.0552,0.0492,0.0527,
江戸川 (Edogawa),2017-04-26,23:01～24:00,0.0567,0.0481,0.0524,
江戸川 (Edogawa),2017-04-26,22:01～23:00,0.0551,0.0486,0.0520,
江戸川 (Edogawa),2017-04-26,21:01～22:00,0.0549,0.0481,0.0518,
江戸川 (Edogawa),2017-04-26,20:01～21:00,0.0561,0.0491,0.0524,
江戸川 (Edogawa),2017-04-26,19:01～20:00,0.0549,0.0479,0.0522,
江戸川 (Edogawa),2017-04-26,18:01～19:00,0.0558,0.0491,0.0524,
江戸川 (Edogawa),2017-04-26,17:01～18:00,0.0553,0.0495,0.0523,
江戸川 (Edogawa),2017-04-26,16:01～17:00,0.0549,0.0471,0.0521,
江戸川 (Edogawa),2017-04-26,15:01～16:00,0.0551,0.0483,0.0519,
江戸川 (Edogawa),2017-04-26,14:01～15:00,0.0564,0.0490,0.0521,
江戸川 (Edogawa),2017-04-26,13:01～14:00,0.0547,0.0476,0.0521,
江戸川 (Edogawa),2017-04-26,12:01～13:00,0.0557,0.0481,0.0521,
江戸川 (Edogawa),2017-04-26,11:01～12:00,0.0556,0.0493,0.0521,
江戸川 (Edogawa),2017-04-26,10:01～11:00,0.0556,0.0492,0.0523,
江戸川 (Edogawa),2017-04-26,09:01～10:00,0.0552,0.0493,0.0527,
江戸川 (Edogawa),2017-04-26,08:01～09:00,0.0550,0.0476,0.0522,
江戸川 (Edogawa),2017-04-26,07:01～08:00,0.0549,0.0491,0.0521,
江戸川 (Edogawa),2017-04-26,06:01～07:00,0.0552,0.0484,0.0520,
江戸川 (Edogawa),2017-04-26,05:01～06:00,0.0561,0.0488,0.0518,
江戸川 (Edogawa),2017-04-26,04:01～05:00,0.0554,0.0471,0.0517,
江戸川 (Edogawa),2017-04-26,03:01～04:00,0.0553,0.0487,0.0518,
江戸川 (Edogawa),2017-04-26,02:01～03:00,0.0551,0.0479,0.0518,
江戸川 (Edogawa),2017-04-26,01:01～02:00,0.0552,0.0495,0.0519,
江戸川 (Edogawa),2017-04-26,00:01～01:00,0.0548,0.0489,0.0518,
江戸川 (Edogawa),2017-04-25,23:01～24:00,0.0546,0.0494,0.0518,
江戸川 (Edogawa),2017-04-25,22:01～23:00,0.0539,0.0489,0.0519,
江戸川 (Edogawa),2017-04-25,21:01～22:00,0.0559,0.0494,0.0520,
江戸川 (Edogawa),2017-04-25,20:01～21:00,0.0556,0.0486,0.0516,
江戸川 (Edogawa),2017-04-25,19:01～20:00,0.0562,0.0494,0.0522,
江戸川 (Edogawa),2017-04-25,18:01～19:00,0.0551,0.0479,0.0522,
江戸川 (Edogawa),2017-04-25,17:01～18:00,0.0547,0.0483,0.0520,
江戸川 (Edogawa),2017-04-25,16:01～17:00,0.0549,0.0499,0.0526,
江戸川 (Edogawa),2017-04-25,15:01～16:00,0.0556,0.0491,0.0526,
江戸川 (Edogawa),2017-04-25,14:01～15:00,0.0581,0.0491,0.0530,
江戸川 (Edogawa),2017-04-25,13:01～14:00,0.0557,0.0483,0.0524,
江戸川 (Edogawa),2017-04-25,12:01～13:00,0.0553,0.0495,0.0523,
江戸川 (Edogawa),2017-04-25,11:01～12:00,0.0552,0.0489,0.0522,
江戸川 (Edogawa),2017-04-25,10:01～11:00,0.0547,0.0496,0.0522,
江戸川 (Edogawa),2017-04-25,09:01～10:00,0.0564,0.0491,0.0522,
江戸川 (Edogawa),2017-04-25,08:01～09:00,0.0553,0.0484,0.0520,
江戸川 (Edogawa),2017-04-25,07:01～08:00,0.0547,0.0482,0.0517,
江戸川 (Edogawa),2017-04-25,06:01～07:00,0.0552,0.0493,0.0518,
江戸川 (Edogawa),2017-04-25,05:01～06:00,0.0553,0.0476,0.0517,
江戸川 (Edogawa),2017-04-25,04:01～05:00,0.0565,0.0494,0.0519,
江戸川 (Edogawa),2017-04-25,03:01～04:00,0.0542,0.0490,0.0518,
江戸川 (Edogawa),2017-04-25,02:01～03:00,0.0540,0.0488,0.0515,
江戸川 (Edogawa),2017-04-25,01:01～02:00,0.0539,0.0493,0.0517,
江戸川 (Edogawa),2017-04-25,00:01～01:00,0.0555,0.0487,0.0519,
江戸川 (Edogawa),2017-04-24,23:01～24:00,0.0555,0.0485,0.0515,
江戸川 (Edogawa),2017-04-24,22:01～23:00,0.0560,0.0489,0.0518,
江戸川 (Edogawa),2017-04-24,21:01～22:00,0.0547,0.0479,0.0513,
江戸川 (Edogawa),2017-04-24,20:01～21:00,0.0553,0.0487,0.0515,
江戸川 (Edogawa),2017-04-24,19:01～20:00,0.0543,0.0492,0.0517,
江戸川 (Edogawa),2017-04-24,18:01～19:00,0.0552,0.0475,0.0523,
江戸川 (Edogawa),2017-04-24,17:01～18:00,0.0554,0.0484,0.0520,
江戸川 (Edogawa),2017-04-24,16:01～17:00,0.0554,0.0485,0.0516,
江戸川 (Edogawa),2017-04-24,15:01～16:00,0.0562,0.0485,0.0523,
江戸川 (Edogawa),2017-04-24,14:01～15:00,0.0549,0.0491,0.0521,
江戸川 (Edogawa),2017-04-24,13:01～14:00,0.0553,0.0483,0.0519,
江戸川 (Edogawa),2017-04-24,12:01～13:00,0.0553,0.0485,0.0520,
江戸川 (Edogawa),2017-04-24,11:01～12:00,0.0545,0.0491,0.0520,
江戸川 (Edogawa),2017-04-24,10:01～11:00,0.0559,0.0486,0.0521,
江戸川 (Edogawa),2017-04-24,09:01～10:00,0.0551,0.0497,0.0520,
江戸川 (Edogawa),2017-04-24,08:01～09:00,0.0548,0.0491,0.0519,
江戸川 (Edogawa),2017-04-24,07:01～08:00,0.0552,0.0479,0.0518,
江戸川 (Edogawa),2017-04-24,06:01～07:00,0.0549,0.0475,0.0517,
江戸川 (Edogawa),2017-04-24,05:01～06:00,0.0543,0.0487,0.0513,
江戸川 (Edogawa),2017-04-24,04:01～05:00,0.0555,0.0480,0.0513,
江戸川 (Edogawa),2017-04-24,03:01～04:00,0.0543,0.0478,0.0514,
江戸川 (Edogawa),2017-04-24,02:01～03:00,0.0553,0.0488,0.0515,
江戸川 (Edogawa),2017-04-24,01:01～02:00,0.0542,0.0474,0.0508,
江戸川 (Edogawa),2017-04-24,00:01～01:00,0.0545,0.0480,0.0514,
